AO-07 1 07530U 74089B 26103.77267182 -.00000027 00000-0 12067-3 0 9994 2 07530 101.9944 116.3401 0011879 253.5120 287.5368 12.53697056352446 UO-11 1 14781U 84021B 26103.84967010 .00000994 00000-0 10712-3 0 9999 2 14781 97.8005 70.1724 0008686 45.1690 315.0233 14.90629114247542 AO-27 1 22825U 93061C 26104.15896091 .00000050 00000-0 36187-4 0 9994 2 22825 98.6918 171.5836 0007267 290.8595 69.1809 14.30924882697841 FO-29 1 24278U 96046B 26104.13449562 -.00000017 00000-0 21729-4 0 9999 2 24278 98.5321 321.7499 0348814 262.6434 93.4946 13.53271120464502 GO-32 1 25397U 98043D 26103.51078617 .00000039 00000-0 37238-4 0 9996 2 25397 99.0057 94.6453 0002164 63.7631 296.3769 14.24415573442129 ISS 1 25544U 98067A 26104.13467087 .00005375 00000-0 10597-3 0 9994 2 25544 51.6322 257.0967 0006556 310.1862 49.8552 15.48905907561823 NO-44 1 26931U 01043C 26104.11051850 .00000073 00000-0 58137-4 0 9991 2 26931 67.0515 49.9992 0006685 264.3151 95.7189 14.31930822281278 SO-50 1 27607U 02058C 26104.02404711 .00000516 00000-0 78925-4 0 9996 2 27607 64.5527 327.4839 0075534 274.1485 85.0991 14.82907052254948 CO-55 1 27844U 03031E 26103.75937083 .00000217 00000-0 11299-3 0 9991 2 27844 98.6766 113.1241 0009892 19.9623 340.1941 14.24295359182502 RS-22 1 27939U 03042A 26104.31987447 .00000532 00000-0 90464-4 0 9992 2 27939 98.3467 286.8792 0012472 109.1013 13.0588 14.73352164206146 CO-65 1 32785U 08021C 26104.19855923 .00002782 00000-0 18088-3 0 9998 2 32785 97.8245 84.3322 0007257 240.6663 119.3841 15.08852000975548 CO-66 1 32791U 08021J 26104.24090676 .00009444 00000-0 32190-3 0 9999 2 32791 97.7524 99.1999 0004106 139.3108 220.8439 15.30597115977503 RS-30 1 32953U 08025A 26104.27931398 .00000016 00000-0 45411-4 0 9998 2 32953 82.5062 35.1846 0020592 89.8481 270.4958 12.43177610811759 SRMSAT 1 37841U 11058D 26104.31023310 .00000364 00000-0 53637-4 0 9995 2 37841 19.9716 86.0981 0011644 220.2979 168.1284 14.11560196748785 ZACUBE-1 1 39417U 13066B 26104.14056077 .00002298 00000-0 18272-3 0 9997 2 39417 97.8125 66.1377 0044982 105.5324 255.0872 15.00663839671122 Delfi-N3xt 1 39428U 13066N 26104.04484015 .00004572 00000-0 40719-3 0 9993 2 39428 97.8339 24.4543 0077255 60.7818 300.1100 14.94248948665044 GOMX-1 1 39430U 13066Q 26104.30819439 .00001068 00000-0 16812-3 0 9991 2 39430 97.6540 308.7900 0127645 282.9169 75.7807 14.69232115660539 LO-74 1 39440U 13066AA 26104.28164977 .00002084 00000-0 19858-3 0 9991 2 39440 97.8860 53.0331 0056501 238.4888 121.0804 14.93333580667456 AO-73 1 39444U 13066AE 26103.86977851 .00005501 00000-0 35027-3 0 9994 2 39444 97.8226 74.0354 0038589 63.9684 296.5509 15.08574092669965 DTUSAT-2 1 40030U 14033W 26104.21988275 .00003451 00000-0 19309-3 0 9991 2 40030 98.0867 97.9338 0009909 93.7328 266.5035 15.14168820643001 LILACSAT-2 1 40908U 15049K 26104.24546013 .00010747 00000-0 19749-3 0 9990 2 40908 97.4749 138.7275 0008834 119.6365 240.5767 15.49375586585844 Horyu-4 1 41340U 16012D 26104.27103203 .00074306 00000-0 57003-3 0 9991 2 41340 30.9893 177.7625 0006069 129.0124 231.1072 15.70681613560691 Lapan A3 1 41603U 16040E 26104.28343144 .00002435 00000-0 79445-4 0 9994 2 41603 97.1490 102.5523 0008638 239.2317 120.8076 15.32691266545027 CAS-2T 1 41847U 16066G 26104.17094911 .00000379 00000-0 63286-4 0 9996 2 41847 98.3840 180.6270 0341501 323.9679 33.8917 14.44553884495550 TechnoSat 1 42829U 17042E 26104.21170777 .00001184 00000-0 88422-4 0 9996 2 42829 97.4197 264.3491 0016729 315.6617 44.3269 15.04565627477082 AO-91 1 43017U 17073E 26104.15151395 .00004122 00000-0 18602-3 0 9995 2 43017 97.4806 332.7053 0153363 188.9284 170.9215 15.11587581455714 S-Net D 1 43186U 18014G 26104.18835634 .00002387 00000-0 12747-3 0 9991 2 43186 97.5409 9.3934 0006767 233.0401 127.0213 15.16080136449065 S-Net B 1 43187U 18014H 26104.13256318 .00002733 00000-0 14553-3 0 9995 2 43187 97.5416 9.3227 0007522 228.3027 131.7562 15.16051049449059 S-Net A 1 43188U 18014J 26104.18753739 .00002348 00000-0 12544-3 0 9990 2 43188 97.5425 9.5742 0007366 228.9121 131.1476 15.16086884449065 S-Net C 1 43189U 18014K 26104.13608314 .00002807 00000-0 14939-3 0 9994 2 43189 97.5443 9.5880 0008945 221.8817 138.1732 15.16042902447600 Ten-Koh 1 43677U 18084G 26104.26979482 .00002069 00000-0 16000-3 0 9995 2 43677 98.0789 293.9450 0009124 336.2252 23.8549 15.02667604406560 PO-101 1 43678U 18084H 26104.27620009 .00001403 00000-0 11743-3 0 9995 2 43678 98.1052 297.7780 0013887 23.2181 336.9666 15.00144843406637 QO-100 1 43700U 18090A 26104.23522292 .00000148 00000-0 00000-0 0 9995 2 43700 0.0159 249.5095 0001195 155.2274 268.1409 1.00271995 27033 MinXSS-2 1 43758U 18099A 26104.15712542 .00018270 00000-0 41729-3 0 9998 2 43758 97.4575 178.7658 0009208 136.4241 223.7735 15.42872434404241 AO-95 1 43770U 18099N 26104.14389934 .00005469 00000-0 21958-3 0 9994 2 43770 97.4445 164.6778 0008530 203.4823 156.6026 15.25349640403454 SNUSat 2 1 43782U 18099AA 26104.13787722 .00004392 00000-0 20168-3 0 9999 2 43782 97.4127 158.5335 0011433 153.5580 206.6241 15.20859258403299 SnugLite 1 43784U 18099AC 26104.09799322 .00006611 00000-0 26143-3 0 9990 2 43784 97.3939 159.0570 0004150 137.6800 222.4759 15.25799467403542 ITASat 1 1 43786U 18099AE 26104.10742725 .00003587 00000-0 17820-3 0 9990 2 43786 97.4100 156.9170 0012118 209.2284 150.8274 15.18243433403187 EAGLET 1 1 43790U 18099AJ 26104.08612035 .00002728 00000-0 16040-3 0 9991 2 43790 97.4300 155.4548 0010770 199.4046 160.6777 15.12454904402643 ESEO 1 43792U 18099AL 26103.98378595 .00001447 00000-0 10867-3 0 9999 2 43792 97.4048 144.1074 0012009 185.6141 174.4953 15.04054967402154 JO-97 1 43803U 18099AX 26104.11110516 .00009483 00000-0 31245-3 0 9996 2 43803 97.4194 166.8073 0007274 132.9283 227.2570 15.31661109403817 Suomi 100 1 43804U 18099AY 26104.14578169 .00005628 00000-0 21482-3 0 9991 2 43804 97.4250 164.8310 0011484 141.5850 218.6209 15.26995560403646 ISAT 1 43879U 18111D 26103.25056307 .00041094 00000-0 59276-3 0 9993 2 43879 97.5900 34.0085 0007367 143.6801 216.4954 15.55855974401043 UWE-4 1 43880U 18111E 26103.73549387 .00017339 00000-0 40295-3 0 9999 2 43880 97.5852 29.3603 0008177 177.3772 182.7519 15.42377655400834 Sparrow 1 43881U 18111F 26103.55698382 .00052469 00000-0 62721-3 0 9991 2 43881 97.6114 39.0598 0004794 148.6256 211.5288 15.60839660401257 Prox-1 1 44339U 19036A 26104.29497554 .00006753 00000-0 66954-3 0 9994 2 44339 23.9946 180.5275 0006508 21.6055 338.4718 14.89109554363938 Taurus 1 1 44530U 19059C 26104.26672811 .00004093 00000-0 66962-3 0 9994 2 44530 98.6355 265.1840 0009707 148.8611 211.3171 14.71387075349243 TO-108 1 44881U 19093C 26104.29732083 .00000924 00000-0 11066-3 0 9996 2 44881 97.7560 178.0830 0012275 301.0862 58.9149 14.86418954341920 RS-44 1 44909U 19096E 26104.13128624 .00000000 00000-0 -37811-4 0 9996 2 44909 82.5263 22.2678 0216478 294.3230 63.5403 12.79747913294154 SALSAT 1 46495U 20068K 26103.56539140 .00004439 00000-0 16112-3 0 9993 2 46495 97.8865 102.7460 0010532 159.4430 200.7234 15.28855640305482 CSS (TIANHE-1) 1 48274U 21035A 26104.14683642 .00015982 00000-0 17868-3 0 9991 2 48274 41.4686 352.1325 0005452 204.5875 155.4705 15.62370155283155 CUTE 1 49263U 21088D 26104.25477727 .00048598 00000-0 36005-3 0 9998 2 49263 97.4197 198.5900 0003235 200.3042 159.8093 15.72777860252452 TeikyoSat 4 1 49396U 21102B 26104.08073626 .00001185 00000-0 78071-4 0 9994 2 49396 97.3737 136.0467 0012971 147.5292 212.6738 15.09281624243057 Z-Sat 1 49399U 21102E 26104.25786913 .00001468 00000-0 75648-4 0 9997 2 49399 97.3402 141.5234 0018464 108.7129 251.6111 15.17774684243749 KOSEN 1 1 49402U 21102H 26104.09271866 .00004172 00000-0 16475-3 0 9997 2 49402 97.3265 147.5148 0015573 77.2336 283.0642 15.25958588244249 HO-113 1 50466U 21131B 26104.25695075 .00000346 00000-0 12074-3 0 9991 2 50466 98.4945 197.0053 0002934 298.1417 61.9475 14.41295941225907 SNUGLITE 2 1 52899U 22065F 26104.13926759 .00000649 00000-0 13242-3 0 9997 2 52899 98.2103 249.1206 0006756 216.6786 143.3954 14.64224887201628 UmKA 1 (RS40S) 1 57172U 23091G 26104.25595882 .00003338 00000-0 15747-3 0 9998 2 57172 97.5113 163.2155 0012329 349.9362 10.1624 15.20113443154295 CubeBel-2 (EU11S) 1 57175U 23091K 26104.28452203 .00006621 00000-0 24716-3 0 9997 2 57175 97.5110 166.9887 0009304 349.3168 10.7872 15.27694904154546 RS-38S 1 57189U 23091Z 26104.26219841 .00008791 00000-0 26895-3 0 9999 2 57189 97.5139 172.5546 0005986 301.0495 59.0159 15.34071074154883 SONATE-2 1 59112U 24043Q 26103.65132145 .00022441 00000-0 34463-3 0 9996 2 59112 97.5450 250.3536 0007416 83.5924 276.6173 15.54259410117853 GRBBeta 1 60237U 24128C 26104.22978151 .00002085 00000-0 15316-3 0 9997 2 60237 61.9887 80.5696 0048156 121.1797 239.4030 15.06132109 96638 Curium One 1 60242U 24128H 26104.28535545 .00004067 00000-0 24580-3 0 9990 2 60242 61.9780 71.9223 0047805 117.4323 243.1646 15.11505827 96798 ROBUSTA-3A 1 60243U 24128J 26104.28144681 .00003865 00000-0 23931-3 0 9992 2 60243 61.9856 74.0613 0048853 114.9429 245.6754 15.10689794 96762 CatSat 1 60246U 24125J 26104.05473859 .00029192 00000-0 47353-3 0 9994 2 60246 97.2171 316.0255 0025641 62.8727 297.5137 15.52329801 97421 HYPERVIEW-1G (RS66S) 1 61772U 24199AP 26104.27776022 .00047097 00000-0 50832-3 0 9992 2 61772 97.3014 341.4029 0009149 139.8595 220.3342 15.63470382124658 AO-123 1 61781U 24199AY 26104.28789012 .00004505 00000-0 13574-3 0 9995 2 61781 97.3100 333.5467 0014340 171.1649 188.9849 15.34745176124127 JINJUSat 1B 1 63210U 25052A 26104.15605550 .00008279 00000-0 27418-3 0 9997 2 63210 97.4079 0.9003 0002248 352.5315 7.5892 15.31560239 60295 NUSHSAT 1 1 63211U 25052B 26104.16181157 .00010291 00000-0 31956-3 0 9990 2 63211 97.4054 1.2750 0002250 2.7514 357.3741 15.33559479 60329 TEVEL2-4 1 63213U 25052D 26104.16805213 .00009299 00000-0 29936-3 0 9999 2 63213 97.3980 0.5398 0002573 28.7066 331.4317 15.32432709 60301 TEVEL2-5 1 63214U 25052E 26103.98612760 .00010101 00000-0 32642-3 0 9994 2 63214 97.3978 0.3229 0002575 28.3664 331.7718 15.32287343 60278 TEVEL2-6 1 63215U 25052F 26103.67035275 .00010053 00000-0 32533-3 0 9996 2 63215 97.3972 359.9922 0002734 27.8175 332.3213 15.32241568 60225 TEVEL2-1 1 63217U 25052H 26103.61331420 .00009229 00000-0 30322-3 0 9990 2 63217 97.3952 359.6319 0003256 36.7386 323.4078 15.31779722 60200 TEVEL2-3 1 63218U 25052J 26103.61000187 .00009356 00000-0 30692-3 0 9995 2 63218 97.3953 359.6435 0003320 36.5924 323.5544 15.31822169 60202 TEVEL2-2 1 63219U 25052K 26103.67922106 .00009195 00000-0 30205-3 0 9997 2 63219 97.3954 359.6991 0003274 36.9163 323.2303 15.31785334 60211 TEVEL2-9 1 63237U 25052AD 26104.16573263 .00008165 00000-0 28375-3 0 9999 2 63237 97.4012 359.6893 0006935 27.7336 332.4274 15.29982285 60237 TEVEL2-7 1 63238U 25052AE 26103.67210028 .00008648 00000-0 30270-3 0 9995 2 63238 97.4020 359.1385 0007122 28.9250 331.2383 15.29726415 60155 TEVEL2-8 1 63239U 25052AF 26103.61418883 .00008203 00000-0 28746-3 0 9991 2 63239 97.4017 359.0601 0007132 30.0262 330.1386 15.29705162 60146 HYDRA-W 1 63490U 25052BL 26103.99373360 .00555993 12109-3 18461-2 0 9992 2 63490 97.3784 7.3302 0005723 138.2834 221.8876 15.90277417 60747 HADES-ICM (SO-125) 1 63492U 25052BN 26104.16035924 .00168897 00000-0 13286-2 0 9992 2 63492 97.3873 6.2274 0004155 79.6678 280.5053 15.70960433 60683 SPIRONE 1 66657U 25274H 26104.26770467 .00001356 00000-0 13484-3 0 9990 2 66657 97.7462 34.4945 0010972 221.7965 138.2417 14.93285049 20684 K-HERO 1 66660U 25274L 26104.08955553 .00001613 00000-0 15754-3 0 9993 2 66660 97.7467 34.4319 0012739 227.9391 132.0746 14.93722928 20669 SNUGLITE-III DURI 1 66661U 25274M 26103.74470120 .00001478 00000-0 14461-3 0 9991 2 66661 97.7465 34.1098 0013347 230.3977 129.6065 14.93788225 20616 SilverSat 1 66909U 98067XV 26103.56967840 .00595033 16365-3 12506-2 0 9992 2 66909 51.6152 243.4532 0013366 312.0887 47.8985 15.98147886 20711 SAKHACUBE-CHOLBON 1 67290U 25313AU 26104.15452898 .00005367 00000-0 22619-3 0 9997 2 67290 97.3962 180.0411 0008910 212.8592 147.2092 15.23719694 16227 RS95S (QMR-KWT-2) 1 67291U 25313AV 26103.92821934 .00007272 00000-0 29726-3 0 9996 2 67291 97.3961 179.8841 0008765 212.0765 147.9941 15.24626625 16190 Ten-Koh2 1 68261U 25241B 26103.92740081 .00005217 00000-0 23223-3 0 9990 2 68261 51.6423 265.3219 0004989 290.3953 69.6489 15.23064733 5118 IO-86 1 40931U 25360.30710720 .00000000 00000-0 12800-3 0 00 2 40931 6.0006 332.5373 0012733 338.8432 8.1437 14.79075515 01 HADES-SA/SpinnyONE 1 71958C 26067D 26089.49758863 -.00009989 00000 0 -51655-3 0 00 2 71958 97.4320 49.1630 0007687 13.6276 327.6456 15.16316797 13 LILIUM-4 1 71922C 26067AC 26089.50133053 -.00014632 00000 0 -74472-3 0 04 2 71922 97.4497 49.1617 0004341 5.9603 355.7042 15.16896692 16 PARUS-6U1 1 71919C 26067Q 26089.49893470 -.00013781 00000 0 -70600-3 0 07 2 71919 97.4488 49.1589 0005235 359.3198 349.2677 15.16662579 15 JACK-002 1 71927C 26067C 26089.49750414 -.00013014 00000 0 -63498-3 0 02 2 71927 97.4500 49.1567 0002681 143.8886 196.8842 15.18377566 18 SAL-E 1 71904C 26067L 26089.49846595 -.00007742 00000 0 -39877-3 0 08 2 71904 97.4412 49.1602 0006442 8.2554 337.7892 15.16462720 16 DISCO-2 1 71908C 26067U 26089.49955160 -.00011726 00000 0 -58129-3 0 09 2 71908 97.4541 49.1588 0000289 282.0588 69.8834 15.17826845 10